Regional Weather Roundup
Issued by NWS

Home | Current Version | Previous Version | Text Only | Print | Product List | Glossary On
Versions: 1 2 3 4 5 6 7 8 9 10 11 12 13 14 15 16 17 18 19 20 21 22 23 24 25 26 27 28 29 30 31 32 33 34 35 36 37 38 39 40 41 42 43 44 45 46 47 48 49 50
000
ASUS45 KTFX 141710
RWRMT
MONTANA REGIONAL WEATHER ROUNDUP
NATIONAL WEATHER SERVICE GREAT FALLS MT
1000 AM MST SUN FEB 14 2016

NOTE: "FAIR" INDICATES FEW OR NO CLOUDS BELOW 12000 FEET WITH NO
SIGNIFICANT WEATHER AND/OR OBSTRUCTIONS TO VISIBILITY.

MTZ001>007-043-141800-
WEST OF THE DIVIDE

CITY           SKY/WX    TMP DP  RH WIND       PRES   REMARKS
KALISPELL      CLOUDY    36  31  82 S7        29.99R WCI  30
MISSOULA       CLOUDY    38  30  73 W10       30.04R WCI  31
BUTTE          CLOUDY    35  25  66 MISG      29.97S
MULLAN PASS    SNOW      30  28  92 NW9       30.00S VSB 1/4 WCI  22
ANACONDA         N/A     41  25  52 W16       29.96S
DEER LODGE       N/A     37  28  70 CALM      29.98R
HAMILTON         N/A     45  30  57 SE8       30.04R
$$

MTZ008-052>055-141800-
SOUTHWEST MONTANA

CITY           SKY/WX    TMP DP  RH WIND       PRES   REMARKS
BOZEMAN        CLOUDY    39  26  59 W7        29.94S
DILLON         CLOUDY    40  25  55 SW12      30.01S
ENNIS          CLOUDY    39  25  56 SE13      30.05S WCI  32
$$

MTZ009-010-012-014-046-048-049-054-141800-
EAST SLOPES AND CENTRAL MONTANA

CITY           SKY/WX    TMP DP  RH WIND       PRES   REMARKS
CUT BANK       SUNNY     41  23  48 W25       29.81R
GREAT FALLS    SUNNY     44  25  47 W25G37    29.82R
MALMSTROM AFB  SUNNY     43  26  50 W18G28    29.84R
HELENA         CLOUDY    43  27  53 W18G26    29.90F
CHOTEAU          N/A     45  19  36 W31G41    29.82R
CONRAD           N/A     44  26  49 W28       29.83S
$$

MTZ011-013-016-021-045-047-050-051-141800-
NORTH CENTRAL MONTANA

CITY           SKY/WX    TMP DP  RH WIND       PRES   REMARKS
HAVRE          CLOUDY    40  26  57 W13       29.76R
LEWISTOWN      CLOUDY    40  23  50 NW15G22   29.79R
N BAR RANCH    MIX PCPN  41  23  48 W22G29    29.79R
CHINOOK          N/A     41  25  52 W14G20    29.74R
$$

MTZ017>020-022>027-061-062-141800-
NORTHEAST MONTANA

CITY           SKY/WX    TMP DP  RH WIND       PRES   REMARKS
GLASGOW        CLOUDY    35  29  78 S3        29.72R
JORDAN           N/A     38  30  73 W12       29.75R WCI  30
SIDNEY         MOSUNNY   37  27  65 SW6       29.74R
WOLF POINT     CLOUDY    35  29  78 CALM      29.73F
PLENTYWOOD       N/A     25  19  80 E3        29.70F
POPLAR           N/A     32  28  86 SW5       29.74S
SCOBEY           N/A     30  19  63 W1        29.69F
$$

MTZ028>42-056>058-141800-
SOUTHCENTRAL AND SOUTHEAST MONTANA

CITY           SKY/WX    TMP DP  RH WIND       PRES   REMARKS
BAKER          CLOUDY    37  31  78 W20G26    29.76F WCI  27
BILLINGS       CLOUDY    48  23  37 W22G32    29.81S
LIVINGSTON     CLOUDY    42  27  55 W23G31    29.87S
MILES CITY     CLOUDY    38  33  82 SW10      29.79S WCI  31
EKALAKA          N/A     32  29  89 W9        29.77S WCI  24
FORSYTH          N/A     39  34  81 SW12      29.79S WCI  32
LAUREL           N/A     49  21  33 W31       29.82F
ROUNDUP          N/A     43  22  43 W17       29.73S
$$

REGIONAL REPORTS...DAKOTAS

CITY           SKY/WX    TMP DP  RH WIND       PRES   REMARKS
WILLISTON      CLOUDY    26  21  81 CALM      29.72S
MINOT          CLOUDY    33  24  69 W8        29.68F WCI  26
DICKINSON      CLOUDY    34  26  72 W17       29.69F WCI  23
BEACH            N/A     37  32  81 W20       29.76S WCI  27
CROSBY         CLOUDY    30  30 100 W9        29.72S WCI  22
TIOGA          CLOUDY    28  28 100 W9        29.74S WCI  20
BISMARCK       CLOUDY    34  28  79 W3        29.73F
GRAND FORKS    LGT SNOW  16  11  80 S21G29    29.79F VSB 1   WCI  -1
FARGO          LGT SNOW  16  10  77 S16G29    29.83F WCI   1
BUFFALO SD       N/A     38  28  67 W17       29.70S WCI  28
RAPID CITY     CLOUDY    38  28  67 CALM      29.80F
$$

REGIONAL REPORTS...WYOMING/IDAHO/WASHINGTON

CITY           SKY/WX    TMP DP  RH WIND       PRES   REMARKS
GILLETTE       CLOUDY    34  28  79 W8        29.82S WCI  27
SHERIDAN       CLOUDY    35  25  66 S5        29.83S
BUFFALO WY     CLOUDY    39  22  50 N6        29.83S
CODY           CLOUDY    43  19  39 W13G20    29.88R
YELLOWSTONE LA   N/A     27  20  75 VRB7      30.00S WCI  19
IDAHO FALLS    FOG       33  32  96 SW17      30.14R VSB 3/4 WCI  22
SALMON         CLOUDY    28  23  80 CALM      30.10S
BOISE          LGT RAIN  41  38  89 CALM      30.26R
SPOKANE        CLOUDY    40  38  93 SW9       30.09S
$$

REGIONAL REPORTS...ALBERTA

CITY           SKY/WX    TMP DP  RH WIND       PRES   REMARKS
EDMONTON       PTSUNNY   34  25  69 W9        29.70R WCI  26
CALGARY        MOSUNNY   37  18  44 SW6       29.73R
LETHBRIDGE     MOSUNNY   45  21  39 W23G33    29.79R
MEDICINE HAT   PTSUNNY   41  27  56 W17       29.72R
WATERTON GATE    N/A     41  18  38 W20G31      N/A
CARDSTON         N/A     43  18  36 W18G26      N/A
MILK RIVER       N/A     43  23  45 W26G33      N/A
ONEFOUR          N/A     37  27  65 NW14        N/A  WCI  29
$$

REGIONAL REPORTS...SASKATCHEWAN

CITY           SKY/WX    TMP DP  RH WIND       PRES   REMARKS
SWIFT CURRENT  SUNNY     30  25  80 W16       29.64R WCI  19
REGINA         PTSUNNY   27  25  93 SW5       29.66S
SASKATOON      PTSUNNY   23  23 100 SW8       29.65S WCI  14
VAL MARIE        N/A     36  27  69 W16         N/A  WCI  26
ROCKGLEN         N/A     32  25  74 W9          N/A  WCI  24
$$



USA.gov is the U.S. government's official web portal to all federal, state and local government web resources and services.